Погода Новый Порт

Погода Новый Порт : погода сейчас, прогноз погоды и архив. Всё, что Вы хотите узнать о погоде Новый Порт!

Хотите узнать прогноз погоды Новый Порт? Тогда Вам сюда: Погода Новый Порт

Поиск расширенной информации на нашем сайте:

Другие новости

Новости СМИ2

Главная страница сайта

Новости сайта

03.07.2017

Напоминаем, что на нашем специализированном сайте Метеоцентр.Азия вы можете получить высокодетализированные автоматические прогнозы погоды по пунктам России, СНГ и мира в авиационном формате (включающие направление и скорость ветра, видимость, явления погоды, количество и форму облачности, нижнюю и верхнюю границу облачности).

Рекомендуем: Услуги по лечению прыщей на странице салона красоты Жетернель.

Погода Новый Порт - сегодня

Время (UTC), дата Ветер
(°,м/с) 
Видим.   Явления Облачность Т
(°С)
Тd
(°С)
f(%) Тe
(°С)
Pmin
(гПа)
dP
(гПа)
Po
(мм)
O2
(г/м3)
Тmin Tmax R s Состояние
почвы
18 14.06.18 000 (С) 20  10 км    1/0 средняя 
[Ac trans]
-1.7   1007.6  -2.2  755             
00 15.06.18 тихо ()   10 км    ясно 
+3.5 +0.6 81 +4  1004.4  -1.2  752  299           
03 15.06.18 170 (Ю) 10 км    4/0 средняя 
[Ac trans]
+5.2 +1.7 78 +5  1005.7  1.3  753  298  +1.8      мокрый или
старый снег
10-40% 
06 15.06.18 160 (Ю) 10 км    8/0 верхняя 
[Ci fib]
+7.5 +3.2 74 +7  1006.7  754  295           
12 15.06.18 110 (В) 10 км    10/0 средняя 
[Ac und]
+8.1 +5.1 81 +8  1009.1  1.5  756  295           
15 15.06.18 тихо ()   10 км  слаб. ливневой дождь  10/6 300 м кучево-дожд., средняя 
[Cb cap|Ac und]
+9.1 +6.2 82 +9  1009.7  0.6  756  294    +11.2  0.0     
03 16.06.18 050 (СВ) 6{10}  10 км    4/0 средняя 
[Ac trans]
+10.1 +7 81 +9  1009.1  0.2  756  292  +7.7    0.3    затоплена
водой 
06 16.06.18 040 (СВ) 10 км    6/0 средняя 
[Ac trans]
+10.6 +67.3 100 +469  1009.6  0.5  756  214           
12 16.06.18 040 (СВ) 10 км    8/8 900 м 
+16.1 +6.1 51 +16  1010  0.1  756  287           
00 17.06.18 020 (С) 10 км    4/0 средняя 
[As trans]
+6.8 +2.4 73 +6  1010.9  0.5  757  297           
03 17.06.18 050 (СВ) 10 км    3/0 средняя 
[Ac trans]
+8.8 +5.3 79 +7  1011.7  0.8  758  295  +6.6        затоплена
водой 
06 17.06.18 030 (СВ) 10 км    ясно 
+11 +6.5 74 +10  1011.4  -0.3  757  292           
12 17.06.18 360 (С) 10 км    ясно 
+18.5 +13.6 73 +25  1010.2  -1  757  283           
18 17.06.18 030 (СВ) 7{10}  10 км    3/0 средняя, верхняя 
[Ac trans|Ci fib]
+12.1 +8.2 77 +11  1009  -1  756  290           
00 18.06.18 360 (С) 7{10}  10 км    9/4 300 м средняя 
[Cu hum|Ac trans]
+9.4 +6.4 82 +7  1007.9  -0.7  755  293           
03 18.06.18 040 (СВ) 10 км  гроза, ливневой дождь  9/9 150 м кучево-дожд. 
[Cb cap]
+5.4 +3.2 86 +4  1009  1.1  756  298  +5.4    0.0    затоплена
водой 
00 19.06.18 360 (С) 0500 м  туман  ?/?  
+6.2 +4.3 88 +5  1005.9  0.2  753  296           
03 19.06.18 030 (СВ) 4000 м  дымка{туман}  8/4 200 м верхняя 
[St|Ci fib]
+11 +8.4 84 +10  1005  -0.9  753  290  +5.7        затоплена
водой 
12 19.06.18 360 (С) 10 км    9/6 300 м средняя 
[Sc|Ac trans]
+15.1 +11.4 79 +17  1003.1  -0.8  751  285           
03 20.06.18 тихо ()   0500 м  туман  ?/?  
+4.8 +3.6 92 +5  994.2  -0.3  745  294  +4.6      затоплена
водой 
12 20.06.18 120 (ЮВ) 10 км    6/4 300 м верхняя 
[Sc|Ci fib]
+6.8 +2.4 73 +7  996.1  746  293           
18 20.06.18 340 (С) 10 км    8/8 500 м 
[Cu hum]
+9 +6.2 83 +7  993.9  -1  744  289           
03 21.06.18 070 (В) 0500 м  туман{ливн. осадки}  ?/?  
+10.4 +8.4 87 +10  990.4  0.2  742  286  +8    0.4    затоплена
водой 
06 21.06.18 080 (В) 4000 м  дымка{туман}  9/3 200 м средняя, верхняя 
[St|Ac trans|Ci sp]
+10.7 +8.5 86 +10  990.6  0.2  742  286           
12 21.06.18 070 (В) 10 км    6/0 средняя 
[Ac trans]
+15.7 +11.7 77 +20  991.5  0.6  743  281           
Время (UTC), дата Ветер
(°,м/с) 
Видим.   Явления Облачность Т
(°С)
Тd
(°С)
f(%) Тe
(°С)
Pmin
(гПа)
dP
(гПа)
Po
(мм)
O2
(г/м3)
Тmin Tmax R s Состояние
почвы

Для получения пояснительной информации подведите курсор к названию столбца.

ПОГОДА Новый Порт - архив

Всё, что Вы хотите узнать о погоде Новый Порт - удобно и подробно!

Выберите нужную дату (начиная с 1 января 2015* года) и нажмите кнопку "Найти".
Будут отображены архивные сводки погоды по пункту Новый Порт, начиная с указанной даты.


Отображать данные в формате CSV (для использования в таблицах Excel)


Внимание! Наш архив погоды предназначен исключительно для личного некоммерческого использования в познавательных целях. Если Вам необходимы официальные справки о состоянии погоды (для производственных, юридических, коммерческих и т.п. целей), обращайтесь в органы Росгидромета.

*Примечание: данная дата относится к архиву по метеостанциям СССР (Россия, СНГ, Балтия).
Архив по метеостанциям Зарубежной Европы и Азии (кроме Китая) хранится 10 дней, по другим регионам земного шара (Китай, Африка, Америка, Австралия, Океания) - 1 день.

Новый Порт - район местоположения метеостанции


Название, широта, долгота, высота метеостанции:
Новый Порт 67.7°ш. 72.9°д. 12 м над ур. моря [Российская Федерация]

Дополнительная информация

В oтличие oт бoльшинства пoгoдных сайтoв мы публикуем пoдрoбную метеoинфoрмацию в детальнoм прoфессиoнальнoм фoрмате.

Характеристики температуры и влажнoсти вoздуха измеряются на высoте 2 м в тени вдали oт зданий и деревьев.
Скoрoсть ветра измеряется на высoте 10 м (на урoвне рoста челoвека скoрoсть ветра ниже в 1.5-2 раза). Если метеoстанция нахoдится в гoрoде или в лесу, тo скoрoсть ветра занижена на 2-4 м/с пo сравнению с oткрытым местoм. Скoрoсть ветра над акватoриями крупных рек и oзёр, а также на вершинах хoлмoв на 2-5 м/с выше, чем в oбычных услoвиях.
Атмoсфернoе давление в разных тoчках местнoсти мoжет значительнo oтличаться oт давления на метеoстанции, в зависимoсти oт услoвий рельефа (при пoдъёме на 10 м давление пoнижается примернo на 1 мм рт.ст.).